This is the latest recevied weather packets stored in our database for station/object KF7ROW. If no packets are shown the sender has not sent any weather packets the latest 10 day(s).
| Time | Temp. | Humidity | Pressure | Rain* | Wind** | Luminosity | Snow |
|---|---|---|---|---|---|---|---|
| 1777412232 | 13.33° C | 68% | 1028.5 hPa | 0 mm | - | 301 W/m² | - |
| 1777411929 | 13.89° C | 66% | 1028.5 hPa | 0 mm | - | 340 W/m² | - |
| 1777411627 | 13.33° C | 68% | 1028.5 hPa | 0 mm | - | 425 W/m² | - |
| 1777411322 | 13.33° C | 66% | 1028.5 hPa | 0 mm | - | 386 W/m² | - |
| 1777411022 | 13.33° C | 64% | 1028.4 hPa | 0 mm | - | 340 W/m² | - |
| 1777410721 | 13.33° C | 66% | 1028.5 hPa | 0 mm | - | 414 W/m² | - |
| 1777410416 | 13.33° C | 66% | 1028.6 hPa | 0 mm | - | 609 W/m² | - |
| 1777410114 | 13.33° C | 67% | 1028.7 hPa | 0 mm | - | 408 W/m² | - |
| 1777409809 | 12.78° C | 65% | 1028.7 hPa | 0 mm | - | 367 W/m² | - |
| 1777409506 | 12.78° C | 64% | 1028.6 hPa | 0 mm | - | 324 W/m² | - |
| 1777409202 | 12.78° C | 67% | 1028.6 hPa | 0 mm | - | 338 W/m² | - |
| 1777408897 | 13.33° C | 66% | 1028.7 hPa | 0 mm | - | 394 W/m² | - |
| 1777408594 | 13.33° C | 65% | 1028.6 hPa | 0 mm | - | 1004 W/m² | - |
| 1777408290 | 13.33° C | 62% | 1028.8 hPa | 0 mm | - | 739 W/m² | - |
| 1777407984 | 13.33° C | 63% | 1028.7 hPa | 0 mm | - | 683 W/m² | - |
| 1777407682 | 13.33° C | 63% | 1028.6 hPa | 0 mm | - | 846 W/m² | - |
| 1777407381 | 13.33° C | 63% | 1028.7 hPa | 0 mm | - | 807 W/m² | - |
| 1777407077 | 13.89° C | 59% | 1028.8 hPa | 0 mm | - | 560 W/m² | - |
| 1777406772 | 13.89° C | 62% | 1028.8 hPa | 0 mm | - | 916 W/m² | - |
| 1777406467 | 13.33° C | 60% | 1029 hPa | 0 mm | - | 844 W/m² | - |
| 1777406162 | 13.33° C | 60% | 1028.7 hPa | 0 mm | - | 655 W/m² | - |
| 1777405857 | 13.33° C | 62% | 1028.7 hPa | 0 mm | - | 744 W/m² | - |
| 1777405554 | 12.78° C | 60% | 1028.9 hPa | 0 mm | - | 352 W/m² | - |
| 1777405251 | 13.33° C | 62% | 1029 hPa | 0 mm | - | 333 W/m² | - |
| 1777404950 | 13.33° C | 61% | 1028.9 hPa | 0 mm | - | 394 W/m² | - |
* Rain latest hour (hover to see other rain measurements)
** Current wind speed in m/s (hover to see current wind gust speed)